NOAA 16 DEB, 41086

Orbit data source: Space-Track

NOAA 16 DEB, 41086 is space debris in SSO originally from a launch on Thu, 21 Sep 2000 UTC launched from the Air Force Western Test Range (AFWTR). Debris objects in space refer to the collection of defunct objects orbiting the Earth. Examples of debris include non-operational satellites, rocket bodies, and fragments generated from explosions, collisions, or faulty payload assembly.

Loading next visibility...
Identifier
41086, 2000-055AV
Orbit
SSO
Country
Flag of USUS
Related business
Manufacturer
Unknown
Mission
Spacecraft
Bus & Motor
Unknown
Mass
Unknown
Launch date (UTC)
2000-09-21 (25 years ago)
Launch vehicle
Unknown
Launch site
Air Force Western Test Range (AFWTR)
Object type
Payload
Rocket body
Debris
Shape & HBR
Unknown shape, 0.1 m
Radar Cross Section
Small (<0.1 m²)

Expand to show TLE details & history
Last TLE update: 4 days ago

TLE from 4 days ago
0 NOAA 16 DEB
1 41086U 00055AV  25337.38793371  .00024668  00000-0  47750-2 0  9991
2 41086  98.8067 133.3731 0030055 220.0337 139.8648 14.63006726523037
Epoch: 2025-12-03T09:18Z
TLE epoch observation values (Epoch: 2025-12-03T09:18:37.472Z)
Latitude
0.00002°
Longitude
-78.74249°
Altitude
702.708 km
Speed
7.496 km/s
True Right ascension
08h 53m 29s
True Declination
0° 00' 00"
Sunlit
Object was in daylight at epoch
Visualization orbit readout
Latitude
Unknown
Longitude
Unknown
Altitude
Unknown
Speed
Unknown
Apparent Right ascension
Unknown
Apparent Declination
Unknown
Sunlit
N/A
Visualization observer readout
Local Sidereal Time
04:05:40
Azimuth
Unknown
Elevation
Unknown
Doppler factor
Unknown
Orbital elements
Apogee altitude
701.803 km
Perigee altitude
659.373 km
Semi-major axis
7,058.725 km
Eccentricity
0.00301
Inclination
98.8067°
RAAN
133.3731°
Arg. of periapsis
220.0337°
True anomaly
140.08616°
Mean anomaly
139.8648°
Eccentric anomaly
139.97555°
Mean motion
3.65977 °/min
Orbital period
98.37 mins
BSTAR
0.004775
Loading maneuver chart data...
Computing Atmospheric mass density...
Loading historical data...
Loading historical data...
Loading historical data...
Loading historical data...
Loading historical data...
Loading historical data...
Loading historical data...

Documentation

Showing up to 5 results
|